Winnipeg, Manitoba

3:14 AM CDT on July 26, 2017 (GMT -0500)
Winnipeg International Airport

Weather History for CYWG - January, 2013

Change the Weather History Date:

Wednesday, January 23, 2013

  Actual Average Record
Temperature  
Mean Temperature -18 °F -  
Max Temperature -11 °F 13 °F 37 °F (2006)
Min Temperature -29 °F -6 °F -29 °F (2013)
Degree Days  
Heating Degree Days 83    
Moisture  
Dew Point -24 °F    
Average Humidity 65    
Maximum Humidity 77    
Minimum Humidity 37    
Precipitation  
Precipitation 0.00 in 0.02 in - ()
Sea Level Pressure  
Sea Level Pressure 30.53 in    
Wind  
Wind Speed 11 mph ()    
Max Wind Speed 22 mph    
Max Gust Speed 26 mph    
Visibility 14.1 miles    
Events Snow    
Averages and records for this station are not official NWS values.
T = Trace of Precipitation, MM = Missing Value Source: Averaged Metar Reports

Daily Weather History Graph

Daily Weather History Graph

Search for Another Location

Airport or City:

Trip Planner

Search our weather history database for the weather conditions in past years. The results will help you decide how hot, cold, wet, or windy it might be!

Date:

Astronomy

Jan. 23, 2013 Rise Set
Actual Time 8:13 AM CST 5:09 PM CST
Civil Twilight 7:37 AM CST 5:44 PM CST
Nautical Twilight 6:57 AM CST 6:24 PM CST
Astronomical Twilight 6:19 AM CST 7:02 PM CST
Moon 2:15 PM CST (1/23) 5:30 AM CST (1/23)
Length of Visible Light 10h 07m
Length of Day
8h 55m
Waxing Gibbous, 89% of the Moon is Illuminated
Jan 23
Waxing Gibbous
Jan 26
Full
Feb 3
Last Quarter
Feb 10
New
Feb 17
First Quarter

Hourly Weather History & Observations

Time (CST) Temp. Windchill Dew Point Humidity Pressure Visibility Wind Dir Wind Speed Gust Speed Precip Events Conditions
12:00 AM -6 °F - -14 °F 53% 30.19 in 9 mi Calm Calm - -  
12:00 AM -5.8 °F -23.4 °F -13.0 °F 71% 30.19 in 15.0 mi West 10.4 mph - N/A   Scattered Clouds
1:00 AM -9.4 °F -30.6 °F -14.8 °F 77% 30.21 in 15.0 mi WNW 13.8 mph - N/A   Mostly Cloudy
2:00 AM -5.8 °F -24.4 °F -13.0 °F 71% 30.22 in 15.0 mi NW 11.5 mph - N/A   Mostly Cloudy
3:00 AM -9.4 °F -30.6 °F -16.6 °F 71% 30.26 in 15.0 mi NW 13.8 mph - N/A   Scattered Clouds
4:00 AM -13.0 °F -33.4 °F -18.4 °F 77% 30.30 in 15.0 mi NW 11.5 mph - N/A   Scattered Clouds
5:00 AM -14.8 °F -37.5 °F -20.2 °F 77% 30.32 in 15.0 mi NW 13.8 mph - N/A   Partly Cloudy
6:00 AM -14 °F - -21 °F 56% 30.37 in 9 mi Calm Calm - -  
6:00 AM -13.0 °F -36.0 °F -18.4 °F 77% 30.36 in 15.0 mi NW 15.0 mph - N/A   Mostly Cloudy
7:00 AM -13.0 °F -39.4 °F -18.4 °F 77% 30.40 in 15.0 mi NNW 20.7 mph - N/A   Partly Cloudy
8:00 AM -14.8 °F -38.3 °F -22.0 °F 70% 30.45 in 15.0 mi NNW 15.0 mph - N/A   Partly Cloudy
9:00 AM -14.8 °F -40.5 °F -23.8 °F 64% 30.50 in 15.0 mi North 18.4 mph 26.5 mph N/A Snow Low Drifting Snow
10:00 AM -14.8 °F -42.4 °F -25.6 °F 58% 30.54 in 15.0 mi North 21.9 mph - N/A Snow Low Drifting Snow
11:00 AM -14.8 °F -39.1 °F -23.8 °F 64% 30.57 in 15.0 mi North 16.1 mph 23.0 mph N/A Snow Low Drifting Snow
12:00 PM -14 °F - -26 °F 37% 30.61 in 9 mi Calm Calm - -  
12:00 PM -14.8 °F -39.8 °F -23.8 °F 64% 30.60 in 15.0 mi North 17.3 mph - N/A Snow Low Drifting Snow
1:00 PM -14.8 °F -39.8 °F -25.6 °F 58% 30.63 in 15.0 mi North 17.3 mph - N/A Snow Low Drifting Snow
2:00 PM -13.0 °F -33.4 °F -25.6 °F 53% 30.66 in 15.0 mi North 11.5 mph - N/A Snow Low Drifting Snow
3:00 PM -14.8 °F -36.6 °F -25.6 °F 58% 30.69 in 15.0 mi North 12.7 mph - N/A   Clear
4:00 PM -16.6 °F -31.3 °F -25.6 °F 64% 30.72 in 15.0 mi North 5.8 mph - N/A   Clear
5:00 PM -20.2 °F -37.3 °F -29.2 °F 63% 30.75 in 15.0 mi NW 6.9 mph - N/A   Clear
6:00 PM -25 °F - -34 °F 45% 30.76 in 9 mi Calm Calm - -  
6:00 PM -23.8 °F -44.5 °F -31.0 °F 69% 30.75 in 15.0 mi NW 9.2 mph - N/A   Clear
7:00 PM -25.6 °F -41.9 °F -32.8 °F 69% 30.77 in 15.0 mi NW 5.8 mph - N/A   Clear
8:00 PM -23.8 °F -37.7 °F -31.0 °F 69% 30.77 in 15.0 mi NW 4.6 mph - N/A   Clear
9:00 PM -23.8 °F -39.8 °F -31.0 °F 69% 30.79 in 15.0 mi WNW 5.8 mph - N/A   Clear
10:00 PM -25.6 °F -37.1 °F -32.8 °F 69% 30.80 in 15.0 mi WNW 3.5 mph - N/A   Clear
11:00 PM -29.2 °F - -34.6 °F 75% 30.79 in 15.0 mi Calm Calm - N/A   Clear